Theta_e
307 307 308 308 308 308 308 309 309 312 314 315 316 315 312 310 311 311 313 313 313 314 315 316 315 315 316 321 322 321 314 313 314 318 318 321 318 324 325 336 338 343 347 343 348
306 306 307 308 309 309 308 309 309 310 312 314 315 316 315 312 311 315 320 318 314 316 316 316 316 318 319 320 321 317 312 315 315 318 318 319 320 321 322 324 341 341 342 348 348
306 306 308 312 313 312 312 311 309 309 310 313 315 316 316 313 313 323 320 320 317 316 316 315 315 314 318 318 319 317 315 315 318 320 321 321 321 323 321 320 326 337 335 335 340
306 306 310 313 313 312 313 312 311 309 310 312 314 316 316 313 316 318 320 320 315 318 316 314 315 316 316 316 318 317 318 318 319 320 320 318 321 322 322 322 323 333 335 334 343
306 306 310 313 313 313 313 313 313 312 313 314 315 316 315 313 316 321 319 320 318 314 317 315 316 318 316 316 317 316 316 319 320 319 319 319 320 320 322 323 323 328 338 338 339
306 306 308 313 313 314 314 314 314 314 314 315 315 316 313 313 320 321 319 320 317 314 313 315 321 320 319 316 315 317 317 317 318 319 319 318 320 321 322 323 323 321 337 341 341
306 306 307 312 314 315 316 317 315 314 314 313 314 314 313 316 320 320 319 320 320 317 315 316 319 318 318 314 317 318 315 314 316 318 317 320 316 319 322 322 322 322 321 324 341
307 307 307 311 315 316 317 319 315 317 314 313 312 313 314 320 320 320 319 319 321 318 318 318 317 319 319 319 317 315 313 313 313 316 318 317 315 316 321 322 322 322 322 323 334
307 307 307 311 316 318 318 319 319 318 321 317 323 323 323 322 321 322 320 319 320 320 318 318 318 318 319 314 313 311 313 314 314 317 316 317 316 315 321 321 321 322 322 335 346
307 307 308 313 318 318 318 318 318 322 318 324 321 322 322 320 322 320 319 319 320 320 319 318 318 312 310 311 314 314 314 313 314 315 317 316 315 318 321 320 321 322 326 334 336
306 307 308 315 318 320 319 318 317 319 317 317 319 322 322 319 319 320 319 320 320 319 316 318 314 314 314 313 314 314 315 314 315 316 319 318 317 316 320 320 321 320 336 336 337
306 307 308 310 319 320 320 317 317 317 317 319 320 320 320 320 319 320 320 319 319 318 317 315 315 316 315 316 315 315 314 314 315 317 319 318 318 318 318 320 322 330 335 338 341
307 307 308 310 319 319 315 315 318 317 316 319 321 319 319 319 319 319 320 319 318 317 318 316 317 318 318 317 318 318 318 318 318 320 319 319 317 318 318 320 321 324 334 336 342
307 307 308 310 318 318 315 314 315 318 317 322 319 319 319 319 319 320 320 320 319 319 318 317 318 319 319 319 319 318 318 320 321 319 318 318 318 317 319 316 320 325 334 338 343
307 307 308 308 315 319 315 314 315 318 324 322 318 319 319 318 319 320 321 320 319 318 318 317 318 317 319 319 319 319 319 319 320 318 319 318 316 315 317 320 325 326 332 340 342
308 307 308 309 314 316 314 316 318 322 328 319 318 317 316 317 318 320 320 320 320 318 318 316 319 319 320 321 321 320 319 319 318 314 318 317 316 319 327 326 325 325 338 337 336
309 308 308 310 316 315 315 319 320 325 322 319 317 317 315 316 317 319 318 316 315 317 318 318 319 320 319 318 319 317 317 320 320 319 320 318 317 330 325 323 322 324 325 334 334
309 310 311 314 314 314 317 317 324 322 317 317 316 316 316 316 318 318 317 316 317 317 317 318 319 317 317 320 321 320 318 321 326 322 323 320 327 331 324 323 321 320 321 326 329
310 319 319 317 315 315 317 319 321 317 316 316 316 317 318 317 317 316 315 317 316 315 318 316 318 317 317 320 320 320 321 320 323 324 323 320 331 328 325 325 322 320 320 319 319
312 320 319 316 316 319 317 320 316 316 316 316 316 317 316 316 317 316 316 316 317 314 315 316 315 317 317 319 319 320 319 322 319 325 329 324 326 330 328 326 323 320 319 319 318
315 320 318 318 316 318 318 320 317 316 316 315 316 316 316 317 317 316 317 316 315 314 315 314 315 315 315 317 319 320 323 323 320 322 327 328 326 329 327 324 323 320 319 317 318
317 316 319 318 316 317 315 316 316 316 316 316 315 316 316 316 316 316 317 317 314 314 315 313 312 314 315 320 321 319 320 320 323 324 322 326 326 324 323 322 322 321 317 318 318
317 318 320 318 314 313 315 317 317 316 315 315 314 314 314 314 314 316 316 317 314 314 313 311 309 310 312 312 315 319 320 321 319 318 321 324 325 321 323 322 322 322 320 319 320
317 315 317 317 314 314 315 315 316 317 315 315 314 315 314 315 314 316 315 317 315 315 313 312 309 310 312 313 313 316 317 320 318 320 321 321 320 323 322 323 320 320 320 320 321
316 313 314 311 313 313 313 316 317 317 315 314 314 315 314 315 315 315 314 314 314 314 313 309 311 313 315 317 316 316 317 316 318 317 318 317 321 321 321 320 321 320 319 318 318
314 313 313 313 315 313 313 316 317 316 314 314 314 314 312 314 314 314 313 313 313 312 311 309 313 316 316 316 315 315 314 316 316 318 316 314 320 317 319 319 320 320 318 318 313
309 312 313 312 312 312 313 315 316 314 314 313 313 312 312 313 312 313 313 313 312 312 310 310 310 310 312 314 314 313 315 315 313 315 312 312 313 312 312 313 314 314 314 313 312
Wind_Speed
21 21 20 19 18 18 16 15 14 13 13 12 12 12 12 14 13 16 17 9 7 7 7 6 4 1 6 4 6 4 3 4 6 2 6 22 11 21 6 18 9 6 27 21 32
22 22 22 20 19 18 17 16 14 13 12 12 11 11 12 14 14 9 7 8 5 8 4 3 2 2 2 3 3 4 4 7 7 3 7 15 10 11 10 4 3 10 13 28 31
24 24 21 21 20 19 17 15 13 12 11 11 10 9 11 12 10 3 10 10 2 6 4 3 6 6 5 4 4 2 5 7 18 25 23 10 10 7 6 5 2 9 15 20 32
25 24 21 20 21 20 19 15 12 10 10 9 8 7 8 8 0 5 9 11 5 7 8 5 6 2 3 4 8 1 15 18 25 32 24 9 9 5 3 7 11 5 12 18 27
25 24 20 19 20 19 19 15 12 10 8 7 5 5 5 5 4 3 12 11 6 1 9 8 5 3 3 5 8 5 12 21 23 22 17 18 12 7 5 11 13 2 17 20 25
25 24 21 18 18 17 17 16 13 10 7 5 3 3 3 3 3 4 10 13 5 1 5 11 5 2 11 6 2 8 8 12 17 24 19 5 6 3 7 9 16 6 15 17 19
25 24 22 17 15 14 16 17 13 10 7 4 1 3 6 5 1 3 7 7 10 2 4 10 6 10 14 7 9 10 9 10 10 11 6 12 7 5 13 14 14 19 15 16 27
25 24 22 17 13 12 16 16 10 11 7 4 3 3 5 0 2 5 8 5 5 4 1 3 9 8 4 9 10 6 4 5 8 12 13 2 9 10 17 16 16 21 20 7 20
25 23 21 15 10 12 16 13 9 6 9 4 5 5 1 3 1 3 3 7 7 4 7 9 7 4 7 4 6 6 4 6 11 2 6 5 12 11 22 18 17 20 17 21 24
25 23 20 11 7 14 16 16 9 3 11 4 6 6 4 8 6 6 4 2 4 7 2 3 3 3 5 5 4 5 5 5 6 8 4 9 10 18 22 19 20 21 19 29 29
24 22 19 8 4 9 14 16 15 3 19 8 12 11 14 8 7 2 3 2 3 2 2 4 3 5 9 7 8 5 6 11 16 16 4 14 9 14 18 5 8 15 33 30 32
25 22 18 7 3 8 13 17 10 11 9 11 13 18 13 7 4 5 6 4 2 1 1 5 5 12 7 8 7 9 12 12 12 11 4 7 9 7 4 4 11 26 33 36 32
24 22 19 8 1 6 12 21 10 17 2 10 8 7 4 5 4 9 10 5 4 2 5 5 8 6 5 9 11 14 6 9 9 10 3 3 7 6 9 5 8 20 24 33 40
23 21 19 10 2 3 9 10 12 16 4 5 4 3 4 3 3 5 8 4 0 5 3 5 5 4 9 8 6 5 10 12 13 2 7 3 8 3 6 8 7 19 37 37 37
23 20 16 12 2 1 12 11 6 8 3 3 3 3 4 4 8 6 10 6 6 7 4 9 7 8 7 6 10 9 10 9 13 6 1 2 3 8 4 10 15 9 26 33 34
23 19 15 9 2 5 12 6 4 5 1 1 3 2 5 8 9 3 4 9 4 2 2 7 20 2 1 3 6 8 8 7 2 2 6 6 6 4 5 8 14 3 16 21 29
23 16 10 5 3 6 8 5 5 3 6 5 4 5 5 4 5 1 2 5 3 6 4 5 5 4 16 8 9 11 8 5 5 3 7 3 4 5 2 11 17 19 20 20 26
22 14 3 10 8 8 9 4 3 2 4 3 5 6 3 8 4 5 5 4 11 5 2 4 6 8 8 4 4 5 4 4 2 3 10 7 5 7 6 19 30 29 28 28 19
19 8 9 7 8 6 4 4 2 3 3 5 6 4 5 7 4 8 7 3 7 7 4 5 4 11 9 3 3 5 2 2 6 4 5 6 5 6 2 15 27 29 34 33 30
16 8 8 7 6 4 5 3 2 3 2 4 4 4 5 6 6 5 4 4 5 5 3 2 5 3 6 7 4 5 2 2 4 3 6 6 5 5 6 10 16 21 24 27 24
9 3 5 11 5 2 2 4 1 8 5 4 2 3 3 4 3 4 3 2 1 3 9 2 3 6 5 4 6 4 3 5 1 2 4 1 6 2 8 12 17 25 19 22 16
10 3 5 8 3 2 2 6 2 2 8 5 3 5 4 4 3 3 3 2 3 3 3 1 4 1 4 5 6 5 5 4 4 3 4 4 4 8 4 11 22 30 31 20 10
13 8 10 7 3 4 8 5 4 2 2 2 3 5 2 1 2 3 4 9 6 3 5 2 2 3 7 5 3 4 3 3 4 3 5 4 4 6 13 7 15 22 27 29 28
8 4 7 6 7 3 5 4 6 10 2 3 2 3 2 2 3 3 5 8 13 3 6 6 3 6 5 7 5 6 6 9 7 3 3 5 6 5 13 4 12 17 21 24 20
9 3 5 4 5 10 3 3 5 4 3 7 2 6 3 2 3 3 5 5 5 8 4 4 5 3 4 6 6 10 9 9 7 10 5 10 9 9 13 10 19 19 14 14 16
6 6 7 11 11 6 3 3 8 2 3 3 0 2 4 3 1 1 2 1 5 3 3 4 3 2 3 5 6 10 14 15 11 14 8 6 9 7 13 19 17 22 22 9 23
4 4 4 6 6 3 1 7 11 4 2 11 5 2 2 3 2 6 9 11 12 4 1 1 3 2 4 4 7 6 3 7 5 7 4 1 6 4 11 17 21 25 27 23 20
Wind_Direction
353 349 346 343 339 334 329 323 317 314 311 311 311 314 318 311 310 305 303 305 286 227 242 254 283 198 191 249 259 236 75 261 255 85 294 317 344 349 16 137 173 205 168 166 157
356 353 349 346 343 336 329 323 316 311 307 306 304 310 317 318 321 324 32 7 243 217 238 257 174 115 197 251 241 134 130 233 226 201 261 306 306 340 5 56 105 148 167 162 156
358 355 355 354 353 348 340 328 318 312 305 304 302 305 316 324 332 60 18 5 315 205 205 222 233 293 253 245 243 216 205 245 280 279 280 275 298 342 30 344 266 185 164 175 178
360 358 358 360 1 357 351 342 329 319 310 302 298 296 313 319 358 9 6 355 15 201 203 217 226 214 234 227 250 215 265 263 277 281 280 260 279 308 337 295 358 174 185 179 171
2 360 357 359 360 360 357 356 350 337 322 308 290 276 297 293 288 13 7 352 333 245 217 213 222 226 228 235 301 189 272 287 296 304 289 288 260 235 261 294 311 328 183 178 191
3 1 357 357 360 1 6 3 356 349 343 326 287 257 257 277 59 48 0 0 347 138 193 191 198 251 298 258 169 297 271 282 311 308 304 256 262 249 263 284 287 278 211 204 204
3 3 359 357 3 6 1 355 356 359 355 347 292 241 257 243 120 319 329 338 355 54 191 197 279 288 291 314 334 328 355 332 313 307 302 304 322 242 257 267 257 272 265 228 221
2 3 1 354 1 7 1 356 360 5 21 39 47 314 265 15 348 258 298 291 291 301 277 359 328 293 347 322 344 9 43 1 295 304 293 111 273 262 264 247 270 266 265 249 185
360 3 4 358 1 24 13 9 358 15 24 32 18 341 315 342 261 11 290 225 262 274 273 292 335 10 346 55 4 2 262 299 307 305 275 163 272 261 247 233 251 268 259 143 136
356 2 5 9 33 41 27 12 10 10 5 325 295 325 358 6 141 24 24 219 320 235 232 323 355 43 13 67 239 252 293 283 266 305 307 290 258 275 228 226 236 240 152 138 131
352 358 6 13 10 16 24 17 12 359 325 274 279 279 293 347 302 301 105 104 333 28 122 302 73 245 245 218 230 241 255 268 279 280 281 290 286 276 218 179 222 152 147 137 127
349 352 1 6 358 359 19 20 29 332 304 305 274 272 274 287 305 216 168 108 65 304 288 10 265 254 242 259 234 249 256 268 277 273 231 305 304 303 274 179 179 147 139 137 136
347 346 351 8 327 27 41 15 0 337 308 294 249 264 224 230 279 167 182 164 171 195 257 184 249 289 234 268 270 269 250 276 249 292 222 323 319 337 313 212 166 156 153 146 144
348 338 345 7 177 30 18 2 359 336 61 278 192 205 255 259 273 167 191 188 25 216 250 251 276 273 296 292 264 261 258 264 271 286 279 131 276 292 278 311 37 155 157 153 144
346 333 342 342 289 47 346 337 327 320 61 186 133 124 8 11 278 207 218 204 209 242 106 255 285 297 298 277 316 291 280 270 278 253 255 239 101 277 2 360 354 271 154 148 142
345 330 334 328 252 356 334 343 345 48 284 124 83 49 24 345 339 161 197 252 280 198 244 244 286 49 14 325 9 330 349 341 312 134 256 238 140 13 11 331 316 206 117 113 112
345 331 333 356 141 352 347 13 50 102 336 10 26 7 328 289 328 68 77 19 38 358 355 333 3 7 18 3 351 38 41 346 330 336 250 355 85 83 65 49 36 42 48 84 99
350 341 34 70 60 6 9 55 92 31 17 9 345 324 294 16 12 8 29 19 32 57 44 46 336 23 359 14 322 331 119 143 218 341 308 287 182 160 136 80 61 44 52 79 73
358 36 94 58 30 6 7 66 230 49 2 359 340 21 9 359 43 25 13 72 37 24 84 27 301 337 21 351 64 311 330 183 145 163 325 287 108 167 152 73 63 47 42 52 62
4 85 83 39 9 31 62 252 60 73 33 17 54 49 12 352 32 33 359 356 129 55 94 309 299 315 339 354 60 97 335 358 27 170 209 269 237 151 166 109 90 59 44 35 48
21 66 49 346 289 343 135 237 102 100 99 81 66 343 359 15 38 0 318 140 93 7 79 81 107 302 10 344 273 6 67 73 136 178 226 131 292 351 169 152 128 114 81 51 16
17 39 26 333 42 36 28 302 328 94 56 45 86 28 30 46 1 340 336 290 166 153 118 234 127 323 286 326 108 130 159 141 158 200 310 297 246 1 249 154 142 134 138 149 152
355 334 18 22 68 354 323 334 338 37 65 74 34 68 31 352 346 271 330 350 180 151 162 164 29 13 348 327 349 85 198 169 115 96 206 164 279 347 301 150 144 147 166 181 188
5 2 347 31 53 73 358 315 342 322 150 102 111 1 334 284 177 271 343 16 10 35 119 103 137 160 202 225 250 294 283 192 176 178 211 221 254 203 262 192 161 167 178 190 204
10 3 10 312 332 333 301 267 297 322 68 45 55 51 35 291 326 354 14 353 9 30 19 99 189 215 247 278 300 302 316 300 207 231 196 271 210 242 202 199 187 171 175 179 194
5 356 338 299 301 337 340 300 258 154 133 290 140 119 74 106 194 284 39 75 258 329 32 4 272 277 262 275 330 316 296 282 275 257 272 251 204 218 176 172 193 181 181 166 135
335 294 308 289 321 355 278 327 305 153 232 114 88 36 36 164 231 259 258 249 238 217 229 228 152 48 271 321 330 311 273 289 69 13 292 115 220 129 82 101 116 117 129 118 117